• In Kazakhstan
  • List of Countries
  • For 7 days
  • Water Temperature
  • Satellite Maps
  • Weather Map
  • News
  • Weather Widgets
  • user-avatar
    Login

    Hourly Weather Olszowa

    Today, 20 February, Wednesday

    Time Temperature Precipitation Wind Pressure Humidity
    00:00 +4°C° 0 mm 3 mps 738 mmHg 85%
    01:00 +3°C° 0 mm 3 mps 738 mmHg 85%
    02:00 +2°C° 0 mm 3 mps 738 mmHg 84%
    03:00 +2°C° 0 mm 3 mps 738 mmHg 83%
    04:00 +2°C° 0 mm 3 mps 738 mmHg 83%
    05:00 +2°C° 0 mm 3 mps 739 mmHg 83%
    06:00 +2°C° 0 mm 3 mps 739 mmHg 84%
    07:00 +1°C° 0 mm 3 mps 739 mmHg 86%
    08:00 +3°C° 0 mm 4 mps 739 mmHg 80%
    09:00 +3°C° 0 mm 5 mps 740 mmHg 73%
    10:00 +5°C° 0 mm 5 mps 740 mmHg 67%
    11:00 +6°C° 0.1 mm 5 mps 740 mmHg 63%
    12:00 +6°C° 0.1 mm 5 mps 740 mmHg 59%
    13:00 +7°C° 0 mm 6 mps 741 mmHg 53%
    14:00 +7°C° 0.1 mm 5 mps 741 mmHg 55%
    15:00 +7°C° 0.1 mm 5 mps 741 mmHg 56%
    16:00 +6°C° 0.1 mm 4 mps 741 mmHg 57%
    17:00 +5°C° 0 mm 4 mps 741 mmHg 62%
    18:00 +5°C° 0 mm 3 mps 741 mmHg 68%
    19:00 +4°C° 0 mm 3 mps 742 mmHg 73%
    20:00 +3°C° 0 mm 3 mps 742 mmHg 75%
    21:00 +3°C° 0 mm 3 mps 742 mmHg 78%
    22:00 +2°C° 0 mm 3 mps 743 mmHg 81%
    23:00 +2°C° 0 mm 3 mps 743 mmHg 81%

    Tomorrow, 21 February, Thursday

    Time Temperature Precipitation Wind Pressure Humidity
    00:00 +3°C° 0 mm 2 mps 743 mmHg 82%
    01:00 +3°C° 0 mm 2 mps 743 mmHg 83%
    02:00 +3°C° 0 mm 2 mps 743 mmHg 82%
    03:00 +3°C° 0 mm 2 mps 743 mmHg 81%
    04:00 +3°C° 0 mm 2 mps 743 mmHg 80%
    05:00 +3°C° 0 mm 2 mps 743 mmHg 81%
    06:00 +3°C° 0 mm 2 mps 743 mmHg 82%
    07:00 +3°C° 0 mm 2 mps 743 mmHg 83%
    08:00 +4°C° 0 mm 2 mps 743 mmHg 79%
    09:00 +5°C° 0 mm 2 mps 743 mmHg 74%
    10:00 +6°C° 0 mm 2 mps 744 mmHg 69%
    11:00 +7°C° 0 mm 3 mps 743 mmHg 66%
    12:00 +8°C° 0 mm 3 mps 743 mmHg 62%
    13:00 +9°C° 0 mm 3 mps 743 mmHg 59%
    14:00 +9°C° 0.1 mm 3 mps 743 mmHg 62%
    15:00 +8°C° 0.1 mm 3 mps 742 mmHg 65%
    16:00 +8°C° 0.1 mm 3 mps 742 mmHg 67%
    17:00 +7°C° 0.5 mm 3 mps 742 mmHg 72%
    18:00 +7°C° 0.5 mm 3 mps 742 mmHg 76%
    19:00 +5°C° 0.5 mm 3 mps 742 mmHg 80%
    20:00 +5°C° 0.2 mm 3 mps 742 mmHg 80%
    21:00 +5°C° 0.2 mm 4 mps 741 mmHg 80%
    22:00 +5°C° 0.2 mm 4 mps 741 mmHg 80%
    23:00 +5°C° 0.4 mm 4 mps 741 mmHg 82%

    Day after tomorrow, 22 February, Friday

    Time Temperature Precipitation Wind Pressure Humidity
    00:00 +5°C° 0.4 mm 4 mps 740 mmHg 85%
    01:00 +5°C° 0.4 mm 5 mps 740 mmHg 87%
    02:00 +5°C° 0.3 mm 5 mps 740 mmHg 89%
    03:00 +5°C° 0.3 mm 5 mps 740 mmHg 90%
    04:00 +5°C° 0.3 mm 5 mps 740 mmHg 91%
    05:00 +5°C° 0.8 mm 5 mps 740 mmHg 91%
    06:00 +5°C° 0.8 mm 5 mps 741 mmHg 90%
    07:00 +5°C° 0.8 mm 5 mps 742 mmHg 90%
    08:00 +3°C° 0 mm 6 mps 743 mmHg 84%
    09:00 +2°C° 0 mm 6 mps 744 mmHg 78%
    10:00 +1°C° 0 mm 6 mps 745 mmHg 73%
    11:00 +1°C° 0 mm 6 mps 746 mmHg 68%
    12:00 +1°C° 0 mm 6 mps 747 mmHg 64%
    13:00 +1°C° 0 mm 5 mps 748 mmHg 59%
    14:00 +1°C° 0 mm 5 mps 748 mmHg 55%
    15:00 0°C° 0 mm 5 mps 749 mmHg 51%
    16:00 0°C° 0 mm 5 mps 749 mmHg 46%
    17:00 -1°C° 0 mm 5 mps 750 mmHg 48%
    18:00 -2°C° 0 mm 4 mps 751 mmHg 50%
    19:00 -3°C° 0 mm 4 mps 751 mmHg 52%
    20:00 -3°C° 0 mm 4 mps 752 mmHg 51%
    21:00 -4°C° 0 mm 4 mps 753 mmHg 51%
    22:00 -4°C° 0 mm 3 mps 753 mmHg 50%
    23:00 -4°C° 0 mm 3 mps 753 mmHg 48%

    23 February, Saturday

    Time Temperature Precipitation Wind Pressure Humidity
    00:00 -4°C° 0 mm 3 mps 754 mmHg 47%
    01:00 -5°C° 0 mm 3 mps 754 mmHg 45%
    02:00 -5°C° 0 mm 3 mps 754 mmHg 44%
    03:00 -5°C° 0 mm 3 mps 754 mmHg 43%
    04:00 -4°C° 0 mm 2 mps 754 mmHg 42%
    05:00 -4°C° 0 mm 2 mps 754 mmHg 41%
    06:00 -4°C° 0 mm 2 mps 754 mmHg 40%
    07:00 -4°C° 0 mm 2 mps 755 mmHg 40%
    08:00 -4°C° 0 mm 2 mps 755 mmHg 36%
    09:00 -3°C° 0 mm 2 mps 755 mmHg 33%
    10:00 -3°C° 0 mm 2 mps 756 mmHg 29%
    11:00 -2°C° 0 mm 2 mps 755 mmHg 27%
    12:00 -1°C° 0 mm 2 mps 755 mmHg 25%
    13:00 -1°C° 0 mm 2 mps 755 mmHg 23%
    14:00 -1°C° 0 mm 2 mps 755 mmHg 24%
    15:00 -1°C° 0 mm 2 mps 755 mmHg 24%
    16:00 -1°C° 0 mm 2 mps 754 mmHg 25%
    17:00 0°C° 0 mm 1 mps 754 mmHg 29%
    18:00 0°C° 0 mm 1 mps 754 mmHg 32%
    19:00 -1°C° 0 mm 1 mps 755 mmHg 36%
    20:00 -1°C° 0 mm 1 mps 754 mmHg 36%
    21:00 -2°C° 0 mm 0 mps 754 mmHg 36%
    22:00 -2°C° 0 mm 0 mps 754 mmHg 36%
    23:00 -2°C° 0 mm 0 mps 754 mmHg 36%

    24 February, Sunday

    Time Temperature Precipitation Wind Pressure Humidity
    00:00 -2°C° 0 mm 0 mps 754 mmHg 35%
    01:00 -2°C° 0 mm 0 mps 754 mmHg 35%
    02:00 -2°C° 0 mm 0 mps 754 mmHg 35%
    03:00 -2°C° 0 mm 0 mps 753 mmHg 35%
    04:00 -2°C° 0 mm 0 mps 753 mmHg 35%
    05:00 -2°C° 0 mm 0 mps 753 mmHg 34%
    06:00 -2°C° 0 mm 0 mps 753 mmHg 33%
    07:00 -1°C° 0 mm 1 mps 753 mmHg 32%
    08:00 0°C° 0 mm 1 mps 753 mmHg 29%
    09:00 +1°C° 0 mm 1 mps 753 mmHg 27%
    10:00 +2°C° 0 mm 1 mps 753 mmHg 25%
    11:00 +2°C° 0 mm 2 mps 752 mmHg 27%
    12:00 +3°C° 0 mm 3 mps 752 mmHg 30%
    13:00 +4°C° 0 mm 3 mps 752 mmHg 32%
    14:00 +4°C° 0 mm 3 mps 751 mmHg 39%
    15:00 +3°C° 0 mm 3 mps 751 mmHg 47%
    16:00 +4°C° 0 mm 2 mps 750 mmHg 54%
    17:00 +2°C° 0 mm 3 mps 750 mmHg 58%
    18:00 +2°C° 0 mm 3 mps 750 mmHg 61%
    19:00 +2°C° 0 mm 3 mps 750 mmHg 65%
    20:00 +1°C° 0 mm 3 mps 750 mmHg 68%
    21:00 0°C° 0 mm 4 mps 750 mmHg 71%
    22:00 0°C° 0 mm 4 mps 750 mmHg 74%
    23:00 -1°C° 0 mm 4 mps 750 mmHg 77%

    25 February, Monday

    Time Temperature Precipitation Wind Pressure Humidity
    00:00 -1°C° 0 mm 4 mps 750 mmHg 79%
    01:00 -1°C° 0 mm 5 mps 750 mmHg 81%
    02:00 -1°C° 0 mm 5 mps 750 mmHg 85%
    03:00 0°C° 0 mm 5 mps 750 mmHg 88%
    04:00 0°C° 0 mm 5 mps 750 mmHg 92%
    05:00 0°C° 0 mm 4 mps 750 mmHg 92%
    06:00 0°C° 0 mm 4 mps 750 mmHg 93%
    07:00 0°C° 0 mm 4 mps 750 mmHg 93%
    08:00 0°C° 0 mm 4 mps 751 mmHg 87%
    09:00 +1°C° 0 mm 5 mps 751 mmHg 81%
    10:00 +2°C° 0 mm 5 mps 751 mmHg 75%
    11:00 +3°C° 0 mm 5 mps 751 mmHg 66%
    12:00 +3°C° 0 mm 6 mps 751 mmHg 58%
    13:00 +4°C° 0 mm 6 mps 751 mmHg 50%
    14:00 +4°C° 0 mm 6 mps 750 mmHg 50%
    15:00 +4°C° 0 mm 6 mps 750 mmHg 49%
    16:00 +4°C° 0 mm 6 mps 750 mmHg 49%
    17:00 +3°C° 0 mm 5 mps 750 mmHg 53%
    18:00 +2°C° 0 mm 5 mps 750 mmHg 57%
    19:00 +1°C° 0 mm 4 mps 750 mmHg 61%
    20:00 +1°C° 0 mm 4 mps 750 mmHg 65%
    21:00 0°C° 0 mm 4 mps 751 mmHg 68%
    22:00 +1°C° 0 mm 3 mps 751 mmHg 72%
    23:00 0°C° 0 mm 3 mps 750 mmHg 75%
    Show more